sat.trackr.live / text

‹ back to catalog

STARLINK-36825

NORAD 68041 · 2026-041B

PAYLOAD ACTIVE UNKNOWN

§ Identity

Operator
Country
US
Launch date
2026-03-02
Launch site
AFETR
Launch vehicle
Mass (kg)
RCS (m²)

Purposes: comms

External: N2YO · Heavens-Above · Gunter

§ Orbital elements

Epoch: 2026-05-25T03:51:35.745696Z

Period
93.85 min
Inclination
53.1585°
Eccentricity
0.0001091
Mean motion
15.34405145 rev/d
Perigee alt
461.9 km
Apogee alt
463.4 km
Semi-major
6,840.8 km
B*
1.2523e-3
RAAN
52.7301°
Arg perigee
96.8207°
Mean anomaly
263.2920°
Rev number
1,312

§ Raw data

STARLINK-368251 68041U 26041B   26145.16083039  .00042181  00000+0  12523-2 0  99902 68041  53.1585  52.7301 0001091  96.8207 263.2920 15.34405145 13122

JSON: /api/v1/satellites/68041 · /tle

For live sub-satellite position, see the globe view (requires WebGL).

§ Visibility from observer

Set your observer location to see the next 7 days of passes ≥ 10°. The values pass through the URL so the page stays shareable.

No JS? Fill the form by hand. The geolocation button needs JavaScript.